This is the latest recevied weather packets stored in our database for station/object K6GMW. If no packets are shown the sender has not sent any weather packets the latest 10 day(s).
| Time | Temp. | Humidity | Pressure | Rain* | Wind** | Luminosity | Snow |
|---|---|---|---|---|---|---|---|
| 1788170803 | 24.44° C | 75% | 1016.9 hPa | 0 mm | - | 0 W/m² | - |
| 1788170499 | 25° C | 74% | 1016.9 hPa | 0 mm | - | 0 W/m² | - |
| 1788170196 | 25° C | 73% | 1016.9 hPa | 0 mm | - | 0 W/m² | - |
| 1788169891 | 25.56° C | 72% | 1016.9 hPa | 0 mm | - | 0 W/m² | - |
| 1788169587 | 25.56° C | 72% | 1016.9 hPa | 0 mm | - | 0 W/m² | - |
| 1788169283 | 25.56° C | 72% | 1016.7 hPa | 0 mm | - | 0 W/m² | - |
| 1788168978 | 25.56° C | 71% | 1016.7 hPa | 0 mm | - | 0 W/m² | - |
| 1788168674 | 25.56° C | 71% | 1016.7 hPa | 0 mm | - | 0 W/m² | - |
| 1788168370 | 26.11° C | 69% | 1017 hPa | 0 mm | - | 0 W/m² | - |
| 1788168066 | 26.67° C | 68% | 1016.8 hPa | 0 mm | - | 0 W/m² | - |
| 1788167765 | 26.67° C | 67% | 1016.8 hPa | 0 mm | - | 0 W/m² | - |
| 1788167461 | 26.67° C | 67% | 1016.8 hPa | 0 mm | - | 0 W/m² | - |
| 1788167156 | 26.67° C | 67% | 1016.7 hPa | 0 mm | - | 0 W/m² | - |
| 1788166852 | 26.67° C | 66% | 1016.6 hPa | 0 mm | - | 0 W/m² | - |
| 1788166547 | 26.67° C | 66% | 1016.7 hPa | 0 mm | - | 0 W/m² | - |
| 1788166242 | 27.22° C | 65% | 1016.9 hPa | 0 mm | - | 0 W/m² | - |
| 1788165938 | 27.22° C | 65% | 1016.8 hPa | 0 mm | - | 0 W/m² | - |
| 1788165634 | 27.22° C | 65% | 1016.6 hPa | 0 mm | - | 0 W/m² | - |
| 1788165330 | 27.22° C | 65% | 1016.8 hPa | 0 mm | - | 0 W/m² | - |
| 1788165024 | 27.22° C | 64% | 1016.7 hPa | 0 mm | - | 0 W/m² | - |
| 1788164723 | 27.22° C | 64% | 1016.7 hPa | 0 mm | - | 0 W/m² | - |
| 1788164419 | 27.22° C | 64% | 1016.6 hPa | 0 mm | - | 0 W/m² | - |
| 1788164115 | 27.78° C | 64% | 1016.5 hPa | 0 mm | - | 0 W/m² | - |
| 1788163811 | 27.78° C | 64% | 1016.8 hPa | 0 mm | - | 0 W/m² | - |
| 1788163510 | 27.22° C | 64% | 1016.8 hPa | 0 mm | - | 0 W/m² | - |
* Rain latest hour (hover to see other rain measurements)
** Current wind speed in m/s (hover to see current wind gust speed)